Kenansville, NC

10:54 AM EDT on July 20, 2017 (GMT -0400)
Duplin County

Weather History for KDPL - May, 2014

Change the Weather History Date:

Saturday, May 3, 2014

  Actual Average (KOAJ) Record (KOAJ)
Temperature  
Mean Temperature 63 °F -  
Max Temperature 77 °F 75 °F 93 °F (2012)
Min Temperature 49 °F 51 °F 44 °F (2015)
Degree Days  
Heating Degree Days 2    
Growing Degree Days 13 (Base 50)    
Moisture  
Dew Point 50 °F    
Average Humidity 67    
Maximum Humidity 97    
Minimum Humidity 30    
Precipitation  
Precipitation 0.00 in - - ()
Sea Level Pressure  
Sea Level Pressure 29.90 in    
Wind  
Wind Speed 2 mph (WSW)    
Max Wind Speed 13 mph    
Max Gust Speed 17 mph    
Visibility 9 miles    
Events      
Averages and records for this station are not official NWS values.
T = Trace of Precipitation, MM = Missing Value Source: NWS Daily Summary

Daily Weather History Graph

Daily Weather History Graph

Search for Another Location

Airport or City:

Trip Planner

Search our weather history database for the weather conditions in past years. The results will help you decide how hot, cold, wet, or windy it might be!

Date:

Astronomy

May. 03, 2014 Rise Set
Actual Time 6:19 AM EDT 7:59 PM EDT
Civil Twilight 5:51 AM EDT 8:26 PM EDT
Nautical Twilight 5:19 AM EDT 8:59 PM EDT
Astronomical Twilight 4:44 AM EDT 9:33 PM EDT
Moon 9:48 AM EDT (5/3) No Moon Set
Length of Visible Light 14h 34m
Length of Day
13h 39m
Waxing Crescent, 19% of the Moon is Illuminated
May 3
Waxing Crescent
May 6
First Quarter
May 14
Full
May 21
Last Quarter
May 28
New

Hourly Weather History & Observations

Time (EDT) Temp. Dew Point Humidity Pressure Visibility Wind Dir Wind Speed Gust Speed Precip Events Conditions
12:15 AM 55.0 °F 53.2 °F 94% 29.92 in 10.0 mi Calm Calm - N/A   Mostly Cloudy
12:35 AM 54.9 °F 53.4 °F 95% 29.92 in 10.0 mi Calm Calm - N/A   Scattered Clouds
12:55 AM 55.4 °F 53.6 °F 94% 29.93 in 10.0 mi Calm Calm - N/A   Mostly Cloudy
1:15 AM 54.5 °F 52.9 °F 94% 29.92 in 10.0 mi Calm Calm - N/A   Mostly Cloudy
1:35 AM 54.9 °F 53.4 °F 95% 29.91 in 10.0 mi Calm Calm - N/A   Overcast
1:55 AM 55.0 °F 53.6 °F 95% 29.90 in 10.0 mi Calm Calm - N/A   Overcast
2:15 AM 54.9 °F 53.4 °F 95% 29.90 in 7.0 mi Calm Calm - N/A   Overcast
2:35 AM 55.4 °F 53.6 °F 94% 29.90 in 10.0 mi Calm Calm - N/A   Overcast
2:55 AM 55.6 °F 53.8 °F 94% 29.90 in 10.0 mi Calm Calm - N/A   Mostly Cloudy
3:15 AM 54.5 °F 52.9 °F 94% 29.90 in 7.0 mi Calm Calm - N/A   Scattered Clouds
3:35 AM 54.1 °F 52.7 °F 95% 29.90 in 7.0 mi Calm Calm - N/A   Scattered Clouds
3:55 AM 53.8 °F 52.3 °F 95% 29.90 in 7.0 mi Calm Calm - N/A   Clear
4:15 AM 53.6 °F 52.3 °F 95% 29.90 in 5.0 mi Calm Calm - N/A   Clear
4:35 AM 53.2 °F 51.8 °F 95% 29.91 in 7.0 mi Calm Calm - N/A   Clear
4:55 AM 52.3 °F 51.1 °F 95% 29.90 in 5.0 mi Calm Calm - N/A   Clear
5:15 AM 52.0 °F 50.9 °F 96% 29.90 in 5.0 mi Calm Calm - N/A   Clear
5:35 AM 50.9 °F 50.0 °F 97% 29.90 in 5.0 mi Calm Calm - N/A   Clear
5:55 AM 50.4 °F 49.5 °F 97% 29.91 in 5.0 mi Calm Calm - N/A   Clear
6:15 AM 49.8 °F 48.9 °F 97% 29.91 in 5.0 mi Calm Calm - N/A   Clear
6:35 AM 49.5 °F 48.6 °F 97% 29.91 in 5.0 mi Calm Calm - N/A   Clear
6:55 AM 50.0 °F 49.1 °F 97% 29.93 in 7.0 mi Calm Calm - N/A   Clear
7:15 AM 52.0 °F 51.1 °F 97% 29.92 in 7.0 mi Calm Calm - N/A   Clear
7:35 AM 54.9 °F 53.6 °F 96% 29.92 in 10.0 mi WSW 3.5 mph - N/A   Clear
7:55 AM 57.2 °F 53.2 °F 87% 29.92 in 10.0 mi Calm Calm - N/A   Clear
8:15 AM 59.4 °F 53.8 °F 82% 29.92 in 10.0 mi WSW 4.6 mph - N/A   Clear
8:35 AM 61.0 °F 54.1 °F 78% 29.92 in 10.0 mi SW 3.5 mph - N/A   Clear
8:55 AM 62.8 °F 53.8 °F 72% 29.92 in 10.0 mi SW 3.5 mph - N/A   Clear
9:15 AM 64.8 °F 53.8 °F 68% 29.91 in 10.0 mi SW 3.5 mph - N/A   Clear
9:35 AM 66.0 °F 53.4 °F 64% 29.91 in 10.0 mi Calm Calm - N/A   Clear
9:55 AM 67.6 °F 53.1 °F 59% 29.91 in 10.0 mi West 5.8 mph - N/A   Clear
10:15 AM 68.0 °F 51.4 °F 55% 29.91 in 10.0 mi SSW 3.5 mph - N/A   Clear
10:35 AM 70.0 °F 52.7 °F 54% 29.91 in 10.0 mi WSW 5.8 mph - N/A   Clear
10:55 AM 69.4 °F 50.4 °F 51% 29.91 in 10.0 mi Calm Calm - N/A   Clear
11:15 AM 70.7 °F 50.9 °F 49% 29.91 in 10.0 mi Calm Calm - N/A   Clear
11:35 AM 71.2 °F 46.0 °F 40% 29.91 in 7.0 mi WSW 6.9 mph - N/A   Clear
11:55 AM 71.8 °F 45.9 °F 39% 29.90 in 10.0 mi Calm Calm - N/A   Clear
12:15 PM 72.3 °F 44.8 °F 37% 29.90 in 10.0 mi SW 5.8 mph - N/A   Clear
12:35 PM 72.5 °F 46.0 °F 39% 29.90 in 10.0 mi Calm Calm - N/A   Clear
12:55 PM 73.4 °F 43.7 °F 34% 29.88 in 10.0 mi South 4.6 mph - N/A   Clear
1:15 PM 72.7 °F 44.2 °F 36% 29.88 in 10.0 mi WSW 3.5 mph - N/A   Scattered Clouds
1:35 PM 75.4 °F 46.2 °F 35% 29.88 in 10.0 mi WSW 6.9 mph - N/A   Scattered Clouds
1:55 PM 74.3 °F 46.2 °F 37% 29.88 in 10.0 mi NW 6.9 mph - N/A   Mostly Cloudy
2:15 PM 74.1 °F 46.2 °F 37% 29.88 in 10.0 mi West 8.1 mph - N/A   Scattered Clouds
2:35 PM 74.8 °F 46.2 °F 36% 29.87 in 10.0 mi West 8.1 mph - N/A   Scattered Clouds
2:55 PM 75.6 °F 46.8 °F 36% 29.87 in 10.0 mi West 9.2 mph - N/A   Scattered Clouds
3:15 PM 76.8 °F 46.6 °F 34% 29.87 in 10.0 mi WSW 12.7 mph 17.3 mph N/A   Scattered Clouds
3:35 PM 76.6 °F 46.2 °F 34% 29.86 in 10.0 mi West 9.2 mph - N/A   Scattered Clouds
3:55 PM 76.8 °F 45.1 °F 32% 29.86 in 10.0 mi West 8.1 mph - N/A   Scattered Clouds
4:15 PM 75.7 °F 44.6 °F 33% 29.85 in 10.0 mi WSW 9.2 mph 16.1 mph N/A   Scattered Clouds
4:35 PM 77.0 °F 43.2 °F 30% 29.85 in 10.0 mi SW 4.6 mph - N/A   Scattered Clouds
4:55 PM 77.2 °F 44.4 °F 31% 29.85 in 10.0 mi West 6.9 mph 16.1 mph N/A   Clear
5:15 PM 77.0 °F 44.4 °F 31% 29.85 in 10.0 mi Calm Calm - N/A   Clear
5:35 PM 75.6 °F 43.7 °F 32% 29.86 in 10.0 mi West 6.9 mph - N/A   Clear
5:55 PM 76.1 °F 44.6 °F 33% 29.86 in 10.0 mi West 6.9 mph - N/A   Scattered Clouds
6:15 PM 76.1 °F 44.2 °F 32% 29.86 in 10.0 mi West 6.9 mph - N/A   Clear
6:35 PM 75.9 °F 43.2 °F 31% 29.86 in 10.0 mi WNW 5.8 mph - N/A   Clear
6:55 PM 75.2 °F 42.6 °F 31% 29.86 in 10.0 mi West 5.8 mph - N/A   Clear
7:15 PM 74.1 °F 43.7 °F 34% 29.87 in 10.0 mi West 4.6 mph - N/A   Clear
7:35 PM 70.5 °F 49.3 °F 47% 29.87 in 10.0 mi Calm Calm - N/A   Clear
7:55 PM 65.3 °F 51.8 °F 62% 29.88 in 10.0 mi Calm Calm - N/A   Clear
8:15 PM 62.8 °F 51.8 °F 67% 29.88 in 10.0 mi Calm Calm - N/A   Clear
8:35 PM 61.0 °F 51.1 °F 70% 29.89 in 10.0 mi Calm Calm - N/A   Clear
8:55 PM 59.0 °F 51.8 °F 77% 29.89 in 10.0 mi Calm Calm - N/A   Clear
9:15 PM 58.1 °F 51.6 °F 79% 29.90 in 10.0 mi Calm Calm - N/A   Clear
9:35 PM 56.8 °F 51.4 °F 82% 29.91 in 10.0 mi Calm Calm - N/A   Clear
9:55 PM 55.9 °F 51.1 °F 84% 29.92 in 10.0 mi Calm Calm - N/A   Clear
10:15 PM 55.4 °F 51.3 °F 86% 29.92 in 10.0 mi Calm Calm - N/A   Clear
10:35 PM 54.5 °F 50.9 °F 88% 29.93 in 10.0 mi Calm Calm - N/A   Clear
10:55 PM 54.1 °F 50.5 °F 88% 29.93 in 10.0 mi Calm Calm - N/A   Clear
11:15 PM 54.0 °F 50.5 °F 88% 29.93 in 10.0 mi Calm Calm - N/A   Clear
11:35 PM 53.8 °F 50.4 °F 88% 29.94 in 10.0 mi Calm Calm - N/A   Clear
11:55 PM 53.6 °F 50.4 °F 89% 29.95 in 10.0 mi Calm Calm - N/A   Clear